Weather History for KLVN - March, 2013

Change the Weather History Date:

Saturday, March 23, 2013

  Actual Average Record
Temperature  
Mean Temperature 22 °F -  
Max Temperature 33 °F 42 °F 71 °F (2003)
Min Temperature 10 °F 24 °F -5 °F (1974)
Degree Days  
Heating Degree Days 44    
Moisture  
Dew Point 16 °F    
Average Humidity 69    
Maximum Humidity 92    
Minimum Humidity 44    
Precipitation  
Precipitation 0.00 in - - ()
Sea Level Pressure  
Sea Level Pressure 30.10 in    
Wind  
Wind Speed 3 mph (West)    
Max Wind Speed 9 mph    
Max Gust Speed -    
Visibility 10 miles    
Events      
Averages and records for this station are not official NWS values.
T = Trace of Precipitation, MM = Missing Value Source: NWS Daily Summary

Daily Weather History Graph

Daily Weather History Graph

Search for Another Location

Airport or City:

Trip Planner

Search our weather history database for the weather conditions in past years. The results will help you decide how hot, cold, wet, or windy it might be!

Date:

Astronomy

Mar. 23, 2013 Rise Set
Actual Time 7:09 AM CDT 7:29 PM CDT
Civil Twilight 6:40 AM CDT 7:58 PM CDT
Nautical Twilight 6:06 AM CDT 8:33 PM CDT
Astronomical Twilight 5:31 AM CDT 9:08 PM CDT
Moon 3:49 PM CDT (3/23) 4:54 AM CDT (3/23)
Length of Visible Light 13h 17m
Length of Day
12h 19m
Waxing Gibbous, 85% of the Moon is Illuminated
Mar 23
Waxing Gibbous
Mar 27
Full
Apr 2
Last Quarter
Apr 10
New
Apr 18
First Quarter

Hourly Weather History & Observations

Time (CDT) Temp. Windchill Dew Point Humidity Pressure Visibility Wind Dir Wind Speed Gust Speed Precip Events Conditions
12:04 AM 23.0 °F - 15.8 °F 74% 30.09 in 10.0 mi Calm Calm - N/A   Clear
12:24 AM 21.2 °F 16.4 °F 15.8 °F 80% 30.09 in 10.0 mi WNW 3.5 mph - N/A   Clear
12:44 AM 21.2 °F 16.4 °F 15.8 °F 80% 30.08 in 10.0 mi West 3.5 mph - N/A   Clear
1:04 AM 21.2 °F 16.4 °F 15.8 °F 80% 30.07 in 10.0 mi West 3.5 mph - N/A   Clear
1:24 AM 23.0 °F 18.4 °F 15.8 °F 74% 30.08 in 10.0 mi West 3.5 mph - N/A   Clear
1:44 AM 21.2 °F - 15.8 °F 80% 30.06 in 10.0 mi Calm Calm - N/A   Clear
2:04 AM 21.2 °F - 15.8 °F 80% 30.07 in 10.0 mi Calm Calm - N/A   Clear
2:24 AM 19.4 °F - 15.8 °F 86% 30.06 in 10.0 mi Calm Calm - N/A   Clear
2:44 AM 19.4 °F 14.3 °F 14.0 °F 80% 30.06 in 10.0 mi WNW 3.5 mph - N/A   Clear
3:04 AM 19.4 °F 12.8 °F 12.2 °F 74% 30.07 in 10.0 mi West 4.6 mph - N/A   Clear
3:24 AM 15.8 °F 10.2 °F 10.4 °F 79% 30.08 in 10.0 mi West 3.5 mph - N/A   Clear
3:44 AM 19.4 °F - 12.2 °F 74% 30.08 in 10.0 mi Calm Calm - N/A   Clear
4:04 AM 15.8 °F 8.6 °F 10.4 °F 79% 30.09 in 10.0 mi West 4.6 mph - N/A   Clear
4:24 AM 17.6 °F 10.7 °F 12.2 °F 79% 30.10 in 10.0 mi West 4.6 mph - N/A   Clear
4:44 AM 15.8 °F 6.1 °F 10.4 °F 79% 30.11 in 10.0 mi West 6.9 mph - N/A   Clear
5:04 AM 17.6 °F 10.7 °F 12.2 °F 79% 30.11 in 10.0 mi WSW 4.6 mph - N/A   Clear
5:24 AM 17.6 °F 10.7 °F 12.2 °F 79% 30.11 in 10.0 mi West 4.6 mph - N/A   Clear
6:04 AM 14.0 °F 8.2 °F 10.4 °F 86% 30.11 in 10.0 mi WNW 3.5 mph - N/A   Clear
6:24 AM 12.2 °F - 10.4 °F 92% 30.11 in 10.0 mi Calm Calm - N/A   Clear
6:44 AM 12.2 °F - 10.4 °F 92% 30.11 in 10.0 mi Calm Calm - N/A   Clear
7:04 AM 14.0 °F - 10.4 °F 86% 30.11 in 10.0 mi Calm Calm - N/A   Clear
7:24 AM 10.4 °F - 8.6 °F 92% 30.12 in 7.0 mi Calm Calm - N/A   Clear
7:44 AM 10.4 °F - 8.6 °F 92% 30.12 in 7.0 mi Calm Calm - N/A   Clear
8:04 AM 12.2 °F - 10.4 °F 92% 30.13 in 10.0 mi Calm Calm - N/A   Clear
8:24 AM 14.0 °F - 10.4 °F 86% 30.13 in 10.0 mi Calm Calm - N/A   Clear
8:44 AM 17.6 °F - 12.2 °F 79% 30.12 in 10.0 mi Calm Calm - N/A   Clear
9:04 AM 19.4 °F - 12.2 °F 74% 30.12 in 10.0 mi Calm Calm - N/A   Clear
9:24 AM 19.4 °F - 14.0 °F 80% 30.12 in 10.0 mi Calm Calm - N/A   Clear
9:44 AM 24.8 °F 19.1 °F 14.0 °F 64% 30.13 in 10.0 mi West 4.6 mph - N/A   Clear
10:04 AM 26.6 °F 22.6 °F 15.8 °F 64% 30.13 in 10.0 mi West 3.5 mph - N/A   Clear
10:24 AM 28.4 °F 24.6 °F 15.8 °F 59% 30.13 in 10.0 mi WNW 3.5 mph - N/A   Clear
10:44 AM 30.2 °F 26.7 °F 17.6 °F 60% 30.13 in 10.0 mi West 3.5 mph - N/A   Clear
11:04 AM 32.0 °F 28.7 °F 15.8 °F 51% 30.13 in 10.0 mi West 3.5 mph - N/A   Clear
11:24 AM 32.0 °F - 17.6 °F 55% 30.14 in 10.0 mi Calm Calm - N/A   Clear
11:44 AM 32.0 °F - 17.6 °F 55% 30.14 in 10.0 mi Calm Calm - N/A   Clear
12:04 PM 33.8 °F - 14.0 °F 44% 30.14 in 10.0 mi Calm Calm - N/A   Clear
12:24 PM 33.8 °F - 15.8 °F 48% 30.14 in 10.0 mi Calm Calm - N/A   Clear
12:44 PM 33.8 °F - 15.8 °F 48% 30.13 in 10.0 mi Calm Calm - N/A   Clear
1:04 PM 33.8 °F - 17.6 °F 52% 30.12 in 10.0 mi Calm Calm - N/A   Clear
1:24 PM 33.8 °F - 17.6 °F 52% 30.12 in 10.0 mi Calm Calm - N/A   Clear
1:44 PM 33.8 °F 29.6 °F 17.6 °F 52% 30.12 in 10.0 mi East 4.6 mph - N/A   Clear
2:04 PM 33.8 °F - 17.6 °F 52% 30.12 in 10.0 mi Calm Calm - N/A   Clear
2:24 PM 33.8 °F 30.8 °F 17.6 °F 52% 30.11 in 10.0 mi SE 3.5 mph - N/A   Clear
2:44 PM 33.8 °F - 17.6 °F 52% 30.10 in 10.0 mi Calm Calm - N/A   Clear
3:04 PM 33.8 °F - 15.8 °F 48% 30.09 in 10.0 mi Calm Calm - N/A   Clear
3:24 PM 33.8 °F - 15.8 °F 48% 30.09 in 10.0 mi Calm Calm - N/A   Clear
3:44 PM 33.8 °F - 15.8 °F 48% 30.09 in 10.0 mi Calm Calm - N/A   Clear
4:04 PM 33.8 °F 30.8 °F 17.6 °F 52% 30.09 in 10.0 mi West 3.5 mph - N/A   Clear
4:24 PM 33.8 °F 29.6 °F 17.6 °F 52% 30.08 in 10.0 mi West 4.6 mph - N/A   Clear
4:44 PM 33.8 °F 29.6 °F 19.4 °F 56% 30.08 in 10.0 mi West 4.6 mph - N/A   Clear
5:04 PM 33.8 °F 28.6 °F 19.4 °F 56% 30.08 in 10.0 mi West 5.8 mph - N/A   Clear
5:24 PM 33.8 °F 28.6 °F 19.4 °F 56% 30.09 in 10.0 mi West 5.8 mph - N/A   Clear
5:44 PM 32.0 °F 25.6 °F 19.4 °F 60% 30.09 in 10.0 mi West 6.9 mph - N/A   Clear
6:04 PM 32.0 °F 25.6 °F 19.4 °F 60% 30.09 in 10.0 mi West 6.9 mph - N/A   Clear
6:24 PM 30.2 °F 23.4 °F 19.4 °F 64% 30.09 in 10.0 mi West 6.9 mph - N/A   Clear
6:44 PM 30.2 °F 22.6 °F 17.6 °F 60% 30.09 in 10.0 mi West 8.1 mph - N/A   Clear
7:04 PM 28.4 °F 19.7 °F 17.6 °F 64% 30.10 in 10.0 mi West 9.2 mph - N/A   Scattered Clouds
7:24 PM 28.4 °F 21.2 °F 17.6 °F 64% 30.10 in 10.0 mi WNW 6.9 mph - N/A   Clear
7:44 PM 26.6 °F 19.1 °F 17.6 °F 69% 30.10 in 10.0 mi West 6.9 mph - N/A   Clear
8:04 PM 28.4 °F 23.3 °F 17.6 °F 64% 30.11 in 10.0 mi West 4.6 mph - N/A   Clear
8:24 PM 26.6 °F 20.0 °F 17.6 °F 69% 30.11 in 10.0 mi West 5.8 mph - N/A   Clear
8:44 PM 26.6 °F 19.1 °F 19.4 °F 74% 30.11 in 10.0 mi West 6.9 mph - N/A   Clear
9:04 PM 24.8 °F 16.1 °F 19.4 °F 80% 30.11 in 10.0 mi WNW 8.1 mph - N/A   Clear
9:24 PM 24.8 °F 17.9 °F 19.4 °F 80% 30.11 in 10.0 mi NW 5.8 mph - N/A   Clear
9:44 PM 24.8 °F 16.9 °F 19.4 °F 80% 30.10 in 10.0 mi WNW 6.9 mph - N/A   Clear
10:04 PM 24.8 °F 16.1 °F 19.4 °F 80% 30.10 in 10.0 mi NW 8.1 mph - N/A   Clear
10:24 PM 24.8 °F 17.9 °F 19.4 °F 80% 30.11 in 10.0 mi WNW 5.8 mph - N/A   Clear
10:44 PM 24.8 °F 19.1 °F 19.4 °F 80% 30.11 in 10.0 mi West 4.6 mph - N/A   Clear
11:04 PM 24.8 °F 19.1 °F 19.4 °F 80% 30.10 in 10.0 mi West 4.6 mph - N/A   Clear
11:24 PM 24.8 °F 17.9 °F 19.4 °F 80% 30.10 in 10.0 mi West 5.8 mph - N/A   Clear
11:44 PM 24.8 °F 19.1 °F 19.4 °F 80% 30.10 in 10.0 mi West 4.6 mph - N/A   Clear